{"data":{"norad_id":60721,"epoch":"2026-09-21T22:22:06.568608Z","epoch_age_seconds":64892,"freshness":"FRESH","line1":"1 60721U 24152B   26264.93202047  .00000279  00000+0  71540-5 0  9996","line2":"2 60721  53.1598 229.1109 0000755  94.1144 265.9960 15.69709436119652","mean_motion":15.69709436,"eccentricity":7.55e-5,"inclination_deg":53.1598,"raan_deg":229.1109,"arg_perigee_deg":94.1144,"mean_anomaly_deg":265.996,"bstar":7.154e-6,"rev_number":11965,"period_min":91.736723177856,"perigee_km":359.21965553737,"apogee_km":360.23707320739,"semimajor_km":6737.8653643724,"source":"CELESTRAK","updated_at":"2026-09-22T09:00:49.276928Z"}}